GLET16 YCBG-YCBG

Flight info

Callsign GLET16
Flight time 0h 3m
Altitude 5000
Route VFR
Aircraft H60/M-SDFGRWY/S

Departure

Time 2026-04-23 11:01
Airport Cambridge Aerodrome (YCBG)

Arrival

Time 2026-04-23 11:05
Airport Cambridge Aerodrome (YCBG)
Time Latitude Longitude Altitude Speed Heading
2026-04-23 10:41 -42.82929 147.47665 48 ft 0 kts 340°
2026-04-23 10:52 -42.82928 147.47665 48 ft 0 kts 343°
2026-04-23 10:58 -42.82814 147.47471 83 ft 69 kts 291°
2026-04-23 10:58 -42.82866 147.46525 122 ft 120 kts 242°
2026-04-23 10:58 -42.83477 147.46488 333 ft 94 kts 130°
2026-04-23 10:59 -42.83647 147.47126 294 ft 49 kts 96°
2026-04-23 10:59 -42.83712 147.47553 275 ft 50 kts 105°
2026-04-23 10:59 -42.83872 147.48042 347 ft 63 kts 118°
2026-04-23 10:59 -42.83655 147.48444 303 ft 83 kts 37°
2026-04-23 11:00 -42.83175 147.48527 407 ft 58 kts 354°
2026-04-23 11:00 -42.82900 147.47825 160 ft 97 kts 300°
2026-04-23 11:00 -42.82771 147.47161 509 ft 65 kts 278°
2026-04-23 11:00 -42.83013 147.46506 585 ft 97 kts 233°
2026-04-23 11:01 -42.83697 147.46471 494 ft 111 kts 153°
2026-04-23 11:01 -42.84170 147.46908 648 ft 81 kts 153°
2026-04-23 11:01 -42.84749 147.47229 886 ft 112 kts 159°
2026-04-23 11:01 -42.85552 147.47569 821 ft 118 kts 169°
2026-04-23 11:02 -42.86349 147.47722 870 ft 106 kts 173°
2026-04-23 11:02 -42.87012 147.47814 1002 ft 90 kts 178°
2026-04-23 11:02 -42.87694 147.47901 1133 ft 105 kts 175°
2026-04-23 11:02 -42.88437 147.47997 1120 ft 104 kts 176°
2026-04-23 11:03 -42.89139 147.47934 1184 ft 100 kts 193°
2026-04-23 11:03 -42.89885 147.47860 1126 ft 107 kts 185°
2026-04-23 11:03 -42.90532 147.47809 1293 ft 93 kts 187°
2026-04-23 11:03 -42.91211 147.47772 1242 ft 99 kts 187°
2026-04-23 11:04 -42.91820 147.47529 1124 ft 90 kts 213°
2026-04-23 11:04 -42.92223 147.46965 761 ft 83 kts 245°
2026-04-23 11:04 -42.92342 147.46256 486 ft 73 kts 280°
2026-04-23 11:04 -42.92044 147.45837 285 ft 62 kts 341°
2026-04-23 11:05 -42.91716 147.45658 322 ft 43 kts 338°
2026-04-23 11:05 -42.91466 147.45513 294 ft 37 kts 347°
2026-04-23 11:05 -42.91261 147.45403 283 ft 32 kts 347°
2026-04-23 11:05 -42.90820 147.45283 111 ft 68 kts 269°
2026-04-23 11:06 -42.90654 147.45152 57 ft 4 kts 285°
2026-04-23 11:06 -42.90660 147.45161 37 ft 1 kts 294°
2026-04-23 11:06 -42.90672 147.45113 54 ft 25 kts 225°
2026-04-23 11:07 -42.90938 147.45022 65 ft 50 kts 193°
2026-04-23 11:07 -42.91920 147.46885 333 ft 58 kts 76°